Starlink 32924

operational
NORAD ID: 63092 Int'l Des: 2025-037 Owner: SPXS Country: US Constellation: starlink
LEOCIRCULAR

About Starlink 32924

Description loading...

Live Position

Loading 3D Globe...

Upcoming Passes

Altitude History

Altitude vs Time

uPlot chart will show altitude changes over time

Two-Line Element Set

1 63092U 25037R 25304.43396088 .00004328 00000-0 37020-3 0 9994
2 63092 70.0008 320.2443 0003473 268.8534 91.2227 14.98339948 39247
Epoch: Oct 31, 2025 • Age: 17 hours

Current Status

Altitude 575.0 km
Velocity 7.58 km/s
Sub-Earth Point 21.70°N, 42.51°E
Launch Date Feb 23, 2025
Age 0.6 years
Type internet

Technical Details

Classification Payload
Mass 730.00 kg
Dry Mass 700.00 kg
Total Mass 730.00 kg
Length 0.30 m
Diameter 4.10 m
Span 29.00 m
Shape Box + pan
Manufacturer SPXS
Bus Type Starlink V2M
Phase Status In Orbit
Owner/State SPXS/US

Large Constellations

Loading constellations...